owner,sensor,date,latitude,longitude,vertical_datum,mass_concentration_of_oxygen_in_sea_water,qcFlag 
SCCF RECON,ioos:station:SCCF:12:1,2008-07-01T00:00:00Z,26.4966,-82.1479,1.61,6.34,1111122 
SCCF RECON,ioos:station:SCCF:12:1,2008-07-01T01:00:00Z,26.4966,-82.1479,1.79,6.1,1111122 
SCCF RECON,ioos:station:SCCF:12:1,2008-07-01T02:00:00Z,26.4966,-82.1479,1.941,6.02,1111122 
SCCF RECON,ioos:station:SCCF:12:1,2008-07-01T03:00:00Z,26.4966,-82.1479,2.061,5.96,1111122 
SCCF RECON,ioos:station:SCCF:12:1,2008-07-01T04:00:00Z,26.4966,-82.1479,2.14,5.97,1111122 
SCCF RECON,ioos:station:SCCF:12:1,2008-07-01T05:00:00Z,26.4966,-82.1479,2.212,6.2,1111122 
SCCF RECON,ioos:station:SCCF:12:1,2008-07-01T06:00:00Z,26.4966,-82.1479,2.23,5.94,1111122 
SCCF RECON,ioos:station:SCCF:12:1,2008-07-01T07:00:00Z,26.4966,-82.1479,2.184,5.86,1111122 
SCCF RECON,ioos:station:SCCF:12:1,2008-07-01T08:00:00Z,26.4966,-82.1479,2.111,5.62,1111122 
SCCF RECON,ioos:station:SCCF:12:1,2008-07-01T09:00:00Z,26.4966,-82.1479,2.082,5.43,1111122 
SCCF RECON,ioos:station:SCCF:12:1,2008-07-01T10:00:00Z,26.4966,-82.1479,2.1,4.85,1111122 
SCCF RECON,ioos:station:SCCF:12:1,2008-07-01T11:00:00Z,26.4966,-82.1479,2.18,5.23,1111122 
SCCF RECON,ioos:station:SCCF:12:1,2008-07-01T12:00:00Z,26.4966,-82.1479,2.311,5.29,1111122 
SCCF RECON,ioos:station:SCCF:12:1,2008-07-01T13:00:00Z,26.4966,-82.1479,2.45,5.06,1111122 
SCCF RECON,ioos:station:SCCF:12:1,2008-07-01T14:00:00Z,26.4966,-82.1479,2.529,5.08,1111122 
SCCF RECON,ioos:station:SCCF:12:1,2008-07-01T15:00:00Z,26.4966,-82.1479,2.56,5.55,1111122 
SCCF RECON,ioos:station:SCCF:12:1,2008-07-01T16:00:00Z,26.4966,-82.1479,2.55,5.62,1111122 
SCCF RECON,ioos:station:SCCF:12:1,2008-07-01T17:00:00Z,26.4966,-82.1479,2.49,5.44,1111122 
SCCF RECON,ioos:station:SCCF:12:1,2008-07-01T18:00:00Z,26.4966,-82.1479,2.38,5.52,1111122 
SCCF RECON,ioos:station:SCCF:12:1,2008-07-01T19:00:00Z,26.4966,-82.1479,2.229,5.72,1111122 
SCCF RECON,ioos:station:SCCF:12:1,2008-07-01T20:00:00Z,26.4966,-82.1479,2.062,5.95,1111122 
SCCF RECON,ioos:station:SCCF:12:1,2008-07-01T21:00:00Z,26.4966,-82.1479,1.917,6.03,1111122 
SCCF RECON,ioos:station:SCCF:12:1,2008-07-01T22:00:00Z,26.4966,-82.1479,1.776,7.08,1111122 
SCCF RECON,ioos:station:SCCF:12:1,2008-07-01T23:00:00Z,26.4966,-82.1479,1.677,6.61,1111122 
SCCF RECON,ioos:station:SCCF:12:1,2008-07-02T00:00:00Z,26.4966,-82.1479,1.585,6.37,1111122 
SCCF RECON,ioos:station:SCCF:12:1,2008-07-02T01:00:00Z,26.4966,-82.1479,1.582,6.33,1111122 
SCCF RECON,ioos:station:SCCF:12:1,2008-07-02T02:00:00Z,26.4966,-82.1479,1.751,6.13,1111122 
SCCF RECON,ioos:station:SCCF:12:1,2008-07-02T03:00:00Z,26.4966,-82.1479,1.892,5.95,1111122 
SCCF RECON,ioos:station:SCCF:12:1,2008-07-02T04:00:00Z,26.4966,-82.1479,2.01,5.7,1111122 
SCCF RECON,ioos:station:SCCF:12:1,2008-07-02T05:00:00Z,26.4966,-82.1479,2.13,5.89,1111122 
SCCF RECON,ioos:station:SCCF:12:1,2008-07-02T06:00:00Z,26.4966,-82.1479,2.23,5.88,1111122 
SCCF RECON,ioos:station:SCCF:12:1,2008-07-02T07:00:00Z,26.4966,-82.1479,2.21,5.89,1111122 
SCCF RECON,ioos:station:SCCF:12:1,2008-07-02T08:00:00Z,26.4966,-82.1479,2.22,5.83,1111122 
SCCF RECON,ioos:station:SCCF:12:1,2008-07-02T09:00:00Z,26.4966,-82.1479,2.18,5.69,1111122 
SCCF RECON,ioos:station:SCCF:12:1,2008-07-02T10:00:00Z,26.4966,-82.1479,2.171,5.5,1111122 
SCCF RECON,ioos:station:SCCF:12:1,2008-07-02T11:00:00Z,26.4966,-82.1479,2.17,5.06,1111122 
SCCF RECON,ioos:station:SCCF:12:1,2008-07-02T12:00:00Z,26.4966,-82.1479,2.21,5.26,1111122 
SCCF RECON,ioos:station:SCCF:12:1,2008-07-02T13:00:00Z,26.4966,-82.1479,2.31,5.37,1111122 
SCCF RECON,ioos:station:SCCF:12:1,2008-07-02T14:00:00Z,26.4966,-82.1479,2.45,5.27,1111122 
SCCF RECON,ioos:station:SCCF:12:1,2008-07-02T15:00:00Z,26.4966,-82.1479,2.55,4.89,1111122 
SCCF RECON,ioos:station:SCCF:12:1,2008-07-02T16:00:00Z,26.4966,-82.1479,2.579,5.21,1111122 
SCCF RECON,ioos:station:SCCF:12:1,2008-07-02T17:00:00Z,26.4966,-82.1479,2.557,5.02,1111122 
SCCF RECON,ioos:station:SCCF:12:1,2008-07-02T18:00:00Z,26.4966,-82.1479,2.492,5.12,1111122 
SCCF RECON,ioos:station:SCCF:12:1,2008-07-02T19:00:00Z,26.4966,-82.1479,2.378,5.66,1111122 
SCCF RECON,ioos:station:SCCF:12:1,2008-07-02T20:00:00Z,26.4966,-82.1479,2.21,5.67,1111122 
SCCF RECON,ioos:station:SCCF:12:1,2008-07-02T21:00:00Z,26.4966,-82.1479,2.06,5.51,1111122 
SCCF RECON,ioos:station:SCCF:12:1,2008-07-02T22:00:00Z,26.4966,-82.1479,1.917,5.65,1111122 
SCCF RECON,ioos:station:SCCF:12:1,2008-07-02T23:00:00Z,26.4966,-82.1479,1.767,5.65,1111122 
SCCF RECON,ioos:station:SCCF:12:1,2008-07-03T00:00:00Z,26.4966,-82.1479,1.631,5.77,1111122 
SCCF RECON,ioos:station:SCCF:12:1,2008-07-03T01:00:00Z,26.4966,-82.1479,1.54,5.65,1111122 
SCCF RECON,ioos:station:SCCF:12:1,2008-07-03T02:00:00Z,26.4966,-82.1479,1.55,5.46,1111122 
SCCF RECON,ioos:station:SCCF:12:1,2008-07-03T03:00:00Z,26.4966,-82.1479,1.723,4.91,1111122 
SCCF RECON,ioos:station:SCCF:12:1,2008-07-03T04:00:00Z,26.4966,-82.1479,1.89,5.23,1111122 
SCCF RECON,ioos:station:SCCF:12:1,2008-07-03T05:00:00Z,26.4966,-82.1479,2.033,5.24,1111122 
SCCF RECON,ioos:station:SCCF:12:1,2008-07-03T06:00:00Z,26.4966,-82.1479,2.16,5.37,1111122 
SCCF RECON,ioos:station:SCCF:12:1,2008-07-03T07:00:00Z,26.4966,-82.1479,2.22,5.13,1111122 
SCCF RECON,ioos:station:SCCF:12:1,2008-07-03T08:00:00Z,26.4966,-82.1479,2.21,4.98,1111122 
SCCF RECON,ioos:station:SCCF:12:1,2008-07-03T09:00:00Z,26.4966,-82.1479,2.154,5.11,1111122 
SCCF RECON,ioos:station:SCCF:12:1,2008-07-03T10:00:00Z,26.4966,-82.1479,2.09,4.92,1111122 
SCCF RECON,ioos:station:SCCF:12:1,2008-07-03T11:00:00Z,26.4966,-82.1479,2.09,4.49,1111122 
SCCF RECON,ioos:station:SCCF:12:1,2008-07-03T12:00:00Z,26.4966,-82.1479,2.15,4.67,1111122 
SCCF RECON,ioos:station:SCCF:12:1,2008-07-03T13:00:00Z,26.4966,-82.1479,2.22,4.78,1111122 
SCCF RECON,ioos:station:SCCF:12:1,2008-07-03T14:00:00Z,26.4966,-82.1479,2.327,4.68,1111122 
SCCF RECON,ioos:station:SCCF:12:1,2008-07-03T15:00:00Z,26.4966,-82.1479,2.467,4.74,1111122 
SCCF RECON,ioos:station:SCCF:12:1,2008-07-03T16:00:00Z,26.4966,-82.1479,2.563,4.77,1111122 
SCCF RECON,ioos:station:SCCF:12:1,2008-07-03T17:00:00Z,26.4966,-82.1479,2.594,4.89,1111122 
SCCF RECON,ioos:station:SCCF:12:1,2008-07-03T18:00:00Z,26.4966,-82.1479,2.602,5.08,1111122 
SCCF RECON,ioos:station:SCCF:12:1,2008-07-03T19:00:00Z,26.4966,-82.1479,2.57,5.11,1111122 
SCCF RECON,ioos:station:SCCF:12:1,2008-07-03T20:00:00Z,26.4966,-82.1479,2.414,5.12,1111122 
SCCF RECON,ioos:station:SCCF:12:1,2008-07-03T21:00:00Z,26.4966,-82.1479,2.24,4.99,1111122 
SCCF RECON,ioos:station:SCCF:12:1,2008-07-03T22:00:00Z,26.4966,-82.1479,2.08,5.19,1111122 
SCCF RECON,ioos:station:SCCF:12:1,2008-07-03T23:00:00Z,26.4966,-82.1479,1.93,5.16,1111122 
SCCF RECON,ioos:station:SCCF:12:1,2008-07-04T00:00:00Z,26.4966,-82.1479,1.785,5.77,1111122 
SCCF RECON,ioos:station:SCCF:12:1,2008-07-04T01:00:00Z,26.4966,-82.1479,1.67,5.55,1111122 
SCCF RECON,ioos:station:SCCF:12:1,2008-07-04T02:00:00Z,26.4966,-82.1479,1.615,5.34,1111122 
SCCF RECON,ioos:station:SCCF:12:1,2008-07-04T03:00:00Z,26.4966,-82.1479,1.7,5.34,1111122 
SCCF RECON,ioos:station:SCCF:12:1,2008-07-04T04:00:00Z,26.4966,-82.1479,1.85,5.03,1111122 
SCCF RECON,ioos:station:SCCF:12:1,2008-07-04T05:00:00Z,26.4966,-82.1479,1.97,5.08,1111122 
SCCF RECON,ioos:station:SCCF:12:1,2008-07-04T06:00:00Z,26.4966,-82.1479,2.08,5.13,1111122 
SCCF RECON,ioos:station:SCCF:12:1,2008-07-04T07:00:00Z,26.4966,-82.1479,2.16,5.22,1111122 
SCCF RECON,ioos:station:SCCF:12:1,2008-07-04T08:00:00Z,26.4966,-82.1479,2.21,5.12,1111122 
SCCF RECON,ioos:station:SCCF:12:1,2008-07-04T09:00:00Z,26.4966,-82.1479,2.2,4.9,1111122 
SCCF RECON,ioos:station:SCCF:12:1,2008-07-04T10:00:00Z,26.4966,-82.1479,2.13,4.94,1111122 
SCCF RECON,ioos:station:SCCF:12:1,2008-07-04T11:00:00Z,26.4966,-82.1479,2.071,4.89,1111122 
SCCF RECON,ioos:station:SCCF:12:1,2008-07-04T12:00:00Z,26.4966,-82.1479,2.045,4.26,1111122 
SCCF RECON,ioos:station:SCCF:12:1,2008-07-04T13:00:00Z,26.4966,-82.1479,2.07,4.84,1111122 
SCCF RECON,ioos:station:SCCF:12:1,2008-07-04T14:00:00Z,26.4966,-82.1479,2.15,4.86,1111122 
SCCF RECON,ioos:station:SCCF:12:1,2008-07-04T15:00:00Z,26.4966,-82.1479,2.289,4.79,1111122 
SCCF RECON,ioos:station:SCCF:12:1,2008-07-04T16:00:00Z,26.4966,-82.1479,2.421,4.83,1111122 
SCCF RECON,ioos:station:SCCF:12:1,2008-07-04T17:00:00Z,26.4966,-82.1479,2.518,4.56,1111122 
SCCF RECON,ioos:station:SCCF:12:1,2008-07-04T18:00:00Z,26.4966,-82.1479,2.569,5.0,1111122 
SCCF RECON,ioos:station:SCCF:12:1,2008-07-04T19:00:00Z,26.4966,-82.1479,2.559,5.23,1111122 
SCCF RECON,ioos:station:SCCF:12:1,2008-07-04T20:00:00Z,26.4966,-82.1479,2.485,6.03,1111122 
SCCF RECON,ioos:station:SCCF:12:1,2008-07-04T21:00:00Z,26.4966,-82.1479,2.352,6.17,1111122 
SCCF RECON,ioos:station:SCCF:12:1,2008-07-04T22:00:00Z,26.4966,-82.1479,2.2,6.11,1111122 
SCCF RECON,ioos:station:SCCF:12:1,2008-07-04T23:00:00Z,26.4966,-82.1479,2.051,6.15,1111122 
SCCF RECON,ioos:station:SCCF:12:1,2008-07-05T00:00:00Z,26.4966,-82.1479,1.92,6.14,1111122 
SCCF RECON,ioos:station:SCCF:12:1,2008-07-05T01:00:00Z,26.4966,-82.1479,1.787,6.25,1111122 
SCCF RECON,ioos:station:SCCF:12:1,2008-07-05T02:00:00Z,26.4966,-82.1479,1.701,6.23,1111122 
SCCF RECON,ioos:station:SCCF:12:1,2008-07-05T03:00:00Z,26.4966,-82.1479,1.667,6.37,1111122 
SCCF RECON,ioos:station:SCCF:12:1,2008-07-05T04:00:00Z,26.4966,-82.1479,1.82,5.89,1111122 
SCCF RECON,ioos:station:SCCF:12:1,2008-07-05T05:00:00Z,26.4966,-82.1479,1.976,5.68,1111122 
SCCF RECON,ioos:station:SCCF:12:1,2008-07-05T06:00:00Z,26.4966,-82.1479,2.1,5.53,1111122 
SCCF RECON,ioos:station:SCCF:12:1,2008-07-05T07:00:00Z,26.4966,-82.1479,2.215,5.73,1111122 
SCCF RECON,ioos:station:SCCF:12:1,2008-07-05T08:00:00Z,26.4966,-82.1479,2.24,5.75,1111122 
SCCF RECON,ioos:station:SCCF:12:1,2008-07-05T09:00:00Z,26.4966,-82.1479,2.27,5.7,1111122 
SCCF RECON,ioos:station:SCCF:12:1,2008-07-05T10:00:00Z,26.4966,-82.1479,2.24,5.57,1111122 
SCCF RECON,ioos:station:SCCF:12:1,2008-07-05T11:00:00Z,26.4966,-82.1479,2.17,5.52,1111122 
SCCF RECON,ioos:station:SCCF:12:1,2008-07-05T12:00:00Z,26.4966,-82.1479,2.11,5.43,1111122 
SCCF RECON,ioos:station:SCCF:12:1,2008-07-05T13:00:00Z,26.4966,-82.1479,2.082,4.89,1111122 
SCCF RECON,ioos:station:SCCF:12:1,2008-07-05T14:00:00Z,26.4966,-82.1479,2.099,5.42,1111122 
SCCF RECON,ioos:station:SCCF:12:1,2008-07-05T15:00:00Z,26.4966,-82.1479,2.18,5.4,1111122 
SCCF RECON,ioos:station:SCCF:12:1,2008-07-05T16:00:00Z,26.4966,-82.1479,2.303,5.49,1111122 
SCCF RECON,ioos:station:SCCF:12:1,2008-07-05T17:00:00Z,26.4966,-82.1479,2.442,5.33,1111122 
SCCF RECON,ioos:station:SCCF:12:1,2008-07-05T18:00:00Z,26.4966,-82.1479,2.523,5.61,1111122 
SCCF RECON,ioos:station:SCCF:12:1,2008-07-05T19:00:00Z,26.4966,-82.1479,2.559,5.97,1111122 
SCCF RECON,ioos:station:SCCF:12:1,2008-07-05T20:00:00Z,26.4966,-82.1479,2.529,6.3,1111122 
SCCF RECON,ioos:station:SCCF:12:1,2008-07-05T21:00:00Z,26.4966,-82.1479,2.438,6.33,1111122 
SCCF RECON,ioos:station:SCCF:12:1,2008-07-05T22:00:00Z,26.4966,-82.1479,2.377,5.98,1111122 
SCCF RECON,ioos:station:SCCF:12:1,2008-07-05T23:00:00Z,26.4966,-82.1479,2.23,5.96,1111122 
SCCF RECON,ioos:station:SCCF:12:1,2008-07-06T00:00:00Z,26.4966,-82.1479,2.061,5.88,1111122 
SCCF RECON,ioos:station:SCCF:12:1,2008-07-06T01:00:00Z,26.4966,-82.1479,1.916,5.8,1111122 
SCCF RECON,ioos:station:SCCF:12:1,2008-07-06T02:00:00Z,26.4966,-82.1479,1.792,6.11,1111122 
SCCF RECON,ioos:station:SCCF:12:1,2008-07-06T03:00:00Z,26.4966,-82.1479,1.705,6.16,1111122 
SCCF RECON,ioos:station:SCCF:12:1,2008-07-06T04:00:00Z,26.4966,-82.1479,1.732,5.93,1111122 
SCCF RECON,ioos:station:SCCF:12:1,2008-07-06T05:00:00Z,26.4966,-82.1479,1.906,5.29,1111122 
SCCF RECON,ioos:station:SCCF:12:1,2008-07-06T06:00:00Z,26.4966,-82.1479,2.07,5.3,1111122 
SCCF RECON,ioos:station:SCCF:12:1,2008-07-06T07:00:00Z,26.4966,-82.1479,2.19,5.58,1111122 
SCCF RECON,ioos:station:SCCF:12:1,2008-07-06T08:00:00Z,26.4966,-82.1479,2.291,5.73,1111122 
SCCF RECON,ioos:station:SCCF:12:1,2008-07-06T09:00:00Z,26.4966,-82.1479,2.332,5.72,1111122 
SCCF RECON,ioos:station:SCCF:12:1,2008-07-06T10:00:00Z,26.4966,-82.1479,2.31,5.68,1111122 
SCCF RECON,ioos:station:SCCF:12:1,2008-07-06T11:00:00Z,26.4966,-82.1479,2.24,5.63,1111122 
SCCF RECON,ioos:station:SCCF:12:1,2008-07-06T12:00:00Z,26.4966,-82.1479,2.17,5.54,1111122 
SCCF RECON,ioos:station:SCCF:12:1,2008-07-06T13:00:00Z,26.4966,-82.1479,2.102,5.38,1111122 
SCCF RECON,ioos:station:SCCF:12:1,2008-07-06T14:00:00Z,26.4966,-82.1479,2.059,5.17,1111122 
SCCF RECON,ioos:station:SCCF:12:1,2008-07-06T15:00:00Z,26.4966,-82.1479,2.077,5.51,1111122 
SCCF RECON,ioos:station:SCCF:12:1,2008-07-06T16:00:00Z,26.4966,-82.1479,2.154,5.6,1111122 
SCCF RECON,ioos:station:SCCF:12:1,2008-07-06T17:00:00Z,26.4966,-82.1479,2.28,5.69,1111122 
SCCF RECON,ioos:station:SCCF:12:1,2008-07-06T18:00:00Z,26.4966,-82.1479,2.391,5.5,1111122 
SCCF RECON,ioos:station:SCCF:12:1,2008-07-06T19:00:00Z,26.4966,-82.1479,2.452,5.69,1111122 
SCCF RECON,ioos:station:SCCF:12:1,2008-07-06T20:00:00Z,26.4966,-82.1479,2.48,6.23,1111122 
SCCF RECON,ioos:station:SCCF:12:1,2008-07-06T21:00:00Z,26.4966,-82.1479,2.486,6.21,1111122 
SCCF RECON,ioos:station:SCCF:12:1,2008-07-06T22:00:00Z,26.4966,-82.1479,2.4,5.99,1111122 
SCCF RECON,ioos:station:SCCF:12:1,2008-07-06T23:00:00Z,26.4966,-82.1479,2.29,6.49,1111122 
SCCF RECON,ioos:station:SCCF:12:1,2008-07-07T00:00:00Z,26.4966,-82.1479,2.161,6.34,1111122 
SCCF RECON,ioos:station:SCCF:12:1,2008-07-07T01:00:00Z,26.4966,-82.1479,2.049,5.89,1111122 
SCCF RECON,ioos:station:SCCF:12:1,2008-07-07T02:00:00Z,26.4966,-82.1479,1.946,5.76,1111122 
SCCF RECON,ioos:station:SCCF:12:1,2008-07-07T03:00:00Z,26.4966,-82.1479,1.86,5.75,1111122 
SCCF RECON,ioos:station:SCCF:12:1,2008-07-07T04:00:00Z,26.4966,-82.1479,1.8,5.64,1111122 
SCCF RECON,ioos:station:SCCF:12:1,2008-07-07T05:00:00Z,26.4966,-82.1479,1.878,5.51,1111122 
SCCF RECON,ioos:station:SCCF:12:1,2008-07-07T06:00:00Z,26.4966,-82.1479,2.06,5.22,1111122 
SCCF RECON,ioos:station:SCCF:12:1,2008-07-07T07:00:00Z,26.4966,-82.1479,2.21,5.2,1111122 
SCCF RECON,ioos:station:SCCF:12:1,2008-07-07T08:00:00Z,26.4966,-82.1479,2.31,5.4,1111122 
SCCF RECON,ioos:station:SCCF:12:1,2008-07-07T09:00:00Z,26.4966,-82.1479,2.38,5.43,1111122 
SCCF RECON,ioos:station:SCCF:12:1,2008-07-07T10:00:00Z,26.4966,-82.1479,2.382,5.57,1111122 
SCCF RECON,ioos:station:SCCF:12:1,2008-07-07T11:00:00Z,26.4966,-82.1479,2.32,5.89,1111122 
SCCF RECON,ioos:station:SCCF:12:1,2008-07-07T12:00:00Z,26.4966,-82.1479,2.233,5.27,1111122 
SCCF RECON,ioos:station:SCCF:12:1,2008-07-07T13:00:00Z,26.4966,-82.1479,2.16,5.24,1111122 
SCCF RECON,ioos:station:SCCF:12:1,2008-07-07T14:00:00Z,26.4966,-82.1479,2.123,5.14,1111122 
SCCF RECON,ioos:station:SCCF:12:1,2008-07-07T15:00:00Z,26.4966,-82.1479,2.099,5.19,1111122 
SCCF RECON,ioos:station:SCCF:12:1,2008-07-07T16:00:00Z,26.4966,-82.1479,2.1,5.51,1111122 
SCCF RECON,ioos:station:SCCF:12:1,2008-07-07T17:00:00Z,26.4966,-82.1479,2.157,5.73,1111122 
SCCF RECON,ioos:station:SCCF:12:1,2008-07-07T18:00:00Z,26.4966,-82.1479,2.26,5.86,1111122 
SCCF RECON,ioos:station:SCCF:12:1,2008-07-07T19:00:00Z,26.4966,-82.1479,2.34,6.06,1111122 
SCCF RECON,ioos:station:SCCF:12:1,2008-07-07T20:00:00Z,26.4966,-82.1479,2.4,6.22,1111122 
SCCF RECON,ioos:station:SCCF:12:1,2008-07-07T21:00:00Z,26.4966,-82.1479,2.42,6.35,1111122 
SCCF RECON,ioos:station:SCCF:12:1,2008-07-07T22:00:00Z,26.4966,-82.1479,2.361,6.46,1111122 
SCCF RECON,ioos:station:SCCF:12:1,2008-07-07T23:00:00Z,26.4966,-82.1479,2.32,6.18,1111122 
SCCF RECON,ioos:station:SCCF:12:1,2008-07-08T00:00:00Z,26.4966,-82.1479,2.25,6.11,1111122 
SCCF RECON,ioos:station:SCCF:12:1,2008-07-08T01:00:00Z,26.4966,-82.1479,2.15,5.95,1111122 
SCCF RECON,ioos:station:SCCF:12:1,2008-07-08T02:00:00Z,26.4966,-82.1479,2.058,5.67,1111122 
SCCF RECON,ioos:station:SCCF:12:1,2008-07-08T03:00:00Z,26.4966,-82.1479,2.002,5.81,1111122 
SCCF RECON,ioos:station:SCCF:12:1,2008-07-08T04:00:00Z,26.4966,-82.1479,1.942,5.63,1111122 
SCCF RECON,ioos:station:SCCF:12:1,2008-07-08T05:00:00Z,26.4966,-82.1479,1.837,5.75,1111122 
SCCF RECON,ioos:station:SCCF:12:1,2008-07-08T06:00:00Z,26.4966,-82.1479,1.924,5.51,1111122 
SCCF RECON,ioos:station:SCCF:12:1,2008-07-08T07:00:00Z,26.4966,-82.1479,2.1,5.23,1111122 
SCCF RECON,ioos:station:SCCF:12:1,2008-07-08T08:00:00Z,26.4966,-82.1479,2.22,5.18,1111122 
SCCF RECON,ioos:station:SCCF:12:1,2008-07-08T09:00:00Z,26.4966,-82.1479,2.31,5.4,1111122 
SCCF RECON,ioos:station:SCCF:12:1,2008-07-08T10:00:00Z,26.4966,-82.1479,2.37,5.5,1111122 
SCCF RECON,ioos:station:SCCF:12:1,2008-07-08T11:00:00Z,26.4966,-82.1479,2.36,5.27,1111122 
SCCF RECON,ioos:station:SCCF:12:1,2008-07-08T12:00:00Z,26.4966,-82.1479,2.316,5.47,1111122 
SCCF RECON,ioos:station:SCCF:12:1,2008-07-08T13:00:00Z,26.4966,-82.1479,2.241,5.34,1111122 
SCCF RECON,ioos:station:SCCF:12:1,2008-07-08T14:00:00Z,26.4966,-82.1479,2.154,5.38,1111122 
SCCF RECON,ioos:station:SCCF:12:1,2008-07-08T15:00:00Z,26.4966,-82.1479,2.072,5.09,1111122 
SCCF RECON,ioos:station:SCCF:12:1,2008-07-08T16:00:00Z,26.4966,-82.1479,2.007,5.37,1111122 
SCCF RECON,ioos:station:SCCF:12:1,2008-07-08T17:00:00Z,26.4966,-82.1479,2.007,5.73,1111122 
SCCF RECON,ioos:station:SCCF:12:1,2008-07-08T18:00:00Z,26.4966,-82.1479,2.065,5.86,1111122 
SCCF RECON,ioos:station:SCCF:12:1,2008-07-08T19:00:00Z,26.4966,-82.1479,2.161,5.86,1111122 
SCCF RECON,ioos:station:SCCF:12:1,2008-07-08T20:00:00Z,26.4966,-82.1479,2.278,6.05,1111122 
SCCF RECON,ioos:station:SCCF:12:1,2008-07-08T21:00:00Z,26.4966,-82.1479,2.349,6.03,1111122 
SCCF RECON,ioos:station:SCCF:12:1,2008-07-08T22:00:00Z,26.4966,-82.1479,2.372,6.23,1111122 
SCCF RECON,ioos:station:SCCF:12:1,2008-07-08T23:00:00Z,26.4966,-82.1479,2.36,5.88,1111122 
SCCF RECON,ioos:station:SCCF:12:1,2008-07-09T00:00:00Z,26.4966,-82.1479,2.291,5.91,1111122 
SCCF RECON,ioos:station:SCCF:12:1,2008-07-09T01:00:00Z,26.4966,-82.1479,2.228,5.64,1111122 
SCCF RECON,ioos:station:SCCF:12:1,2008-07-09T02:00:00Z,26.4966,-82.1479,2.132,5.49,1111122 
SCCF RECON,ioos:station:SCCF:12:1,2008-07-09T03:00:00Z,26.4966,-82.1479,2.04,5.03,1111122 
SCCF RECON,ioos:station:SCCF:12:1,2008-07-09T04:00:00Z,26.4966,-82.1479,1.99,5.08,1111122 
SCCF RECON,ioos:station:SCCF:12:1,2008-07-09T05:00:00Z,26.4966,-82.1479,1.98,5.2,1111122 
SCCF RECON,ioos:station:SCCF:12:1,2008-07-09T06:00:00Z,26.4966,-82.1479,2.031,5.26,1111122 
SCCF RECON,ioos:station:SCCF:12:1,2008-07-09T07:00:00Z,26.4966,-82.1479,2.149,5.2,1111122 
SCCF RECON,ioos:station:SCCF:12:1,2008-07-09T08:00:00Z,26.4966,-82.1479,2.26,5.13,1111122 
SCCF RECON,ioos:station:SCCF:12:1,2008-07-09T09:00:00Z,26.4966,-82.1479,2.348,5.06,1111122 
SCCF RECON,ioos:station:SCCF:12:1,2008-07-09T10:00:00Z,26.4966,-82.1479,2.38,4.99,1111122 
SCCF RECON,ioos:station:SCCF:12:1,2008-07-09T11:00:00Z,26.4966,-82.1479,2.37,4.96,1111122 
SCCF RECON,ioos:station:SCCF:12:1,2008-07-09T12:00:00Z,26.4966,-82.1479,2.347,5.03,1111122 
SCCF RECON,ioos:station:SCCF:12:1,2008-07-09T13:00:00Z,26.4966,-82.1479,2.3,5.33,1111122 
SCCF RECON,ioos:station:SCCF:12:1,2008-07-09T14:00:00Z,26.4966,-82.1479,2.229,5.19,1111122 
SCCF RECON,ioos:station:SCCF:12:1,2008-07-09T15:00:00Z,26.4966,-82.1479,2.15,5.25,1111122 
SCCF RECON,ioos:station:SCCF:12:1,2008-07-09T16:00:00Z,26.4966,-82.1479,2.07,5.0,1111122 
SCCF RECON,ioos:station:SCCF:12:1,2008-07-09T17:00:00Z,26.4966,-82.1479,1.994,5.49,1111122 
SCCF RECON,ioos:station:SCCF:12:1,2008-07-09T19:00:00Z,26.4966,-82.1479,2.01,6.46,1111122 
SCCF RECON,ioos:station:SCCF:12:1,2008-07-09T20:00:00Z,26.4966,-82.1479,2.13,6.3,1111122 
SCCF RECON,ioos:station:SCCF:12:1,2008-07-09T21:00:00Z,26.4966,-82.1479,2.233,6.2,1111122 
SCCF RECON,ioos:station:SCCF:12:1,2008-07-09T22:00:00Z,26.4966,-82.1479,2.273,6.25,1111122 
SCCF RECON,ioos:station:SCCF:12:1,2008-07-09T23:00:00Z,26.4966,-82.1479,2.301,6.09,1111122 
SCCF RECON,ioos:station:SCCF:12:1,2008-07-10T00:00:00Z,26.4966,-82.1479,2.32,6.19,1111122 
SCCF RECON,ioos:station:SCCF:12:1,2008-07-10T01:00:00Z,26.4966,-82.1479,2.247,6.16,1111122 
SCCF RECON,ioos:station:SCCF:12:1,2008-07-10T02:00:00Z,26.4966,-82.1479,2.199,6.09,1111122 
SCCF RECON,ioos:station:SCCF:12:1,2008-07-10T03:00:00Z,26.4966,-82.1479,2.151,5.97,1111122 
SCCF RECON,ioos:station:SCCF:12:1,2008-07-10T04:00:00Z,26.4966,-82.1479,2.14,5.84,1111122 
SCCF RECON,ioos:station:SCCF:12:1,2008-07-10T05:00:00Z,26.4966,-82.1479,2.14,5.66,1111122 
SCCF RECON,ioos:station:SCCF:12:1,2008-07-10T06:00:00Z,26.4966,-82.1479,2.15,5.67,1111122 
SCCF RECON,ioos:station:SCCF:12:1,2008-07-10T07:00:00Z,26.4966,-82.1479,2.22,5.67,1111122 
SCCF RECON,ioos:station:SCCF:12:1,2008-07-10T08:00:00Z,26.4966,-82.1479,2.28,5.51,1111122 
SCCF RECON,ioos:station:SCCF:12:1,2008-07-10T09:00:00Z,26.4966,-82.1479,2.359,5.48,1111122 
SCCF RECON,ioos:station:SCCF:12:1,2008-07-10T10:00:00Z,26.4966,-82.1479,2.43,5.34,1111122 
SCCF RECON,ioos:station:SCCF:12:1,2008-07-10T11:00:00Z,26.4966,-82.1479,2.48,5.19,1111122 
SCCF RECON,ioos:station:SCCF:12:1,2008-07-10T12:00:00Z,26.4966,-82.1479,2.48,5.26,1111122 
SCCF RECON,ioos:station:SCCF:12:1,2008-07-10T13:00:00Z,26.4966,-82.1479,2.431,5.48,1111122 
SCCF RECON,ioos:station:SCCF:12:1,2008-07-10T14:00:00Z,26.4966,-82.1479,2.35,5.55,1111122 
SCCF RECON,ioos:station:SCCF:12:1,2008-07-10T15:00:00Z,26.4966,-82.1479,2.269,5.57,1111122 
SCCF RECON,ioos:station:SCCF:12:1,2008-07-10T16:00:00Z,26.4966,-82.1479,2.17,5.66,1111122 
SCCF RECON,ioos:station:SCCF:12:1,2008-07-10T17:00:00Z,26.4966,-82.1479,2.08,5.78,1111122 
SCCF RECON,ioos:station:SCCF:12:1,2008-07-10T18:00:00Z,26.4966,-82.1479,2.01,6.03,1111122 
SCCF RECON,ioos:station:SCCF:12:1,2008-07-10T19:00:00Z,26.4966,-82.1479,1.98,6.36,1111122 
SCCF RECON,ioos:station:SCCF:12:1,2008-07-10T20:00:00Z,26.4966,-82.1479,2.012,6.33,1111122 
SCCF RECON,ioos:station:SCCF:12:1,2008-07-10T21:00:00Z,26.4966,-82.1479,2.088,6.61,1111122 
SCCF RECON,ioos:station:SCCF:12:1,2008-07-10T22:00:00Z,26.4966,-82.1479,2.156,6.6,1111122 
SCCF RECON,ioos:station:SCCF:12:1,2008-07-10T23:00:00Z,26.4966,-82.1479,2.21,6.33,1111122 
SCCF RECON,ioos:station:SCCF:12:1,2008-07-11T00:00:00Z,26.4966,-82.1479,2.269,6.24,1111122 
SCCF RECON,ioos:station:SCCF:12:1,2008-07-11T01:00:00Z,26.4966,-82.1479,2.27,6.25,1111122 
SCCF RECON,ioos:station:SCCF:12:1,2008-07-11T02:00:00Z,26.4966,-82.1479,2.27,6.41,1111122 
SCCF RECON,ioos:station:SCCF:12:1,2008-07-11T03:00:00Z,26.4966,-82.1479,2.278,6.1,1111122 
SCCF RECON,ioos:station:SCCF:12:1,2008-07-11T04:00:00Z,26.4966,-82.1479,2.26,6.33,1111122 
SCCF RECON,ioos:station:SCCF:12:1,2008-07-11T05:00:00Z,26.4966,-82.1479,2.24,6.43,1111122 
SCCF RECON,ioos:station:SCCF:12:1,2008-07-11T06:00:00Z,26.4966,-82.1479,2.23,6.07,1111122 
SCCF RECON,ioos:station:SCCF:12:1,2008-07-11T07:00:00Z,26.4966,-82.1479,2.24,6.04,1111122 
SCCF RECON,ioos:station:SCCF:12:1,2008-07-11T08:00:00Z,26.4966,-82.1479,2.29,5.83,1111122 
SCCF RECON,ioos:station:SCCF:12:1,2008-07-11T09:00:00Z,26.4966,-82.1479,2.358,5.75,1111122 
SCCF RECON,ioos:station:SCCF:12:1,2008-07-11T10:00:00Z,26.4966,-82.1479,2.42,5.46,1111122 
SCCF RECON,ioos:station:SCCF:12:1,2008-07-11T11:00:00Z,26.4966,-82.1479,2.48,5.43,1111122 
SCCF RECON,ioos:station:SCCF:12:1,2008-07-11T12:00:00Z,26.4966,-82.1479,2.48,5.49,1111122 
SCCF RECON,ioos:station:SCCF:12:1,2008-07-11T13:00:00Z,26.4966,-82.1479,2.45,5.36,1111122 
SCCF RECON,ioos:station:SCCF:12:1,2008-07-11T14:00:00Z,26.4966,-82.1479,2.411,5.56,1111122 
SCCF RECON,ioos:station:SCCF:12:1,2008-07-11T15:00:00Z,26.4966,-82.1479,2.35,5.86,1111122 
SCCF RECON,ioos:station:SCCF:12:1,2008-07-11T16:00:00Z,26.4966,-82.1479,2.252,5.82,1111122 
SCCF RECON,ioos:station:SCCF:12:1,2008-07-11T17:00:00Z,26.4966,-82.1479,2.149,5.83,1111122 
SCCF RECON,ioos:station:SCCF:12:1,2008-07-11T18:00:00Z,26.4966,-82.1479,2.05,6.05,1111122 
SCCF RECON,ioos:station:SCCF:12:1,2008-07-11T19:00:00Z,26.4966,-82.1479,1.97,6.06,1111122 
SCCF RECON,ioos:station:SCCF:12:1,2008-07-11T20:00:00Z,26.4966,-82.1479,1.92,6.46,1111122 
SCCF RECON,ioos:station:SCCF:12:1,2008-07-11T21:00:00Z,26.4966,-82.1479,1.926,6.75,1111122 